BREEZE-M DEB, 38601

Orbit data source: Space-Track

BREEZE-M DEB, 38601 is space debris in HEO originally from a launch on Fri, 14 Mar 2008 UTC launched from the Tyuratam Missile And Space Complex (TTMTR). Debris objects in space refer to the collection of defunct objects orbiting the Earth. Examples of debris include non-operational satellites, rocket bodies, and fragments generated from explosions, collisions, or faulty payload assembly.

Loading next visibility...
Identifier
38601, 2008-011AY
Orbit
HEO
Country
Flag of CISCIS
Related business
Manufacturer
Unknown
Mission
Spacecraft
Bus & Motor
Unknown
Mass
Unknown
Launch date (UTC)
2008-03-14 (18 years ago)
Launch vehicle
Unknown
Launch site
Tyuratam Missile And Space Complex (TTMTR)
Object type
Payload
Rocket body
Debris
Shape & HBR
Unknown shape, 0.3 m
Radar Cross Section
Medium (>0.1 m² and <1 m²)

Expand to show TLE details & history
Last TLE update: 4 days ago

TLE from 4 days ago
0 BREEZE-M DEB
1 38601U 08011AY  26170.30518818  .00030119  00000-0  26498-2 0  9993
2 38601  48.0619  38.5802 5190295 175.4483 192.3633  5.35196505237296
Epoch: 2026-06-19T07:19Z
TLE epoch observation values (Epoch: 2026-06-19T07:19:28.258Z)
Latitude
-0.00002°
Longitude
21.18202°
Altitude
14,518.984 km
Speed
3.047 km/s
True Right ascension
02h 34m 20s
True Declination
0° 00' 00"
Sunlit
Object was in daylight at epoch
Visualization orbit readout
Latitude
Unknown
Longitude
Unknown
Altitude
Unknown
Speed
Unknown
Apparent Right ascension
Unknown
Apparent Declination
Unknown
Sunlit
N/A
Visualization observer readout
Local Sidereal Time
11:04:20
Azimuth
Unknown
Elevation
Unknown
Doppler factor
Unknown
Orbital elements
Apogee altitude
14,594.52 km
Perigee altitude
262.438 km
Semi-major axis
13,806.616 km
Eccentricity
0.51903
Inclination
48.0619°
RAAN
38.5802°
Arg. of periapsis
175.4483°
True anomaly
184.59034°
Mean anomaly
192.3633°
Eccentric anomaly
188.14832°
Mean motion
1.33787 °/min
Orbital period
269.09 mins
BSTAR
0.0026498
Loading maneuver chart data...
Computing Atmospheric mass density...
Loading historical data...
Loading historical data...
Loading historical data...
Loading historical data...
Loading historical data...
Loading historical data...
Loading historical data...

Documentation

Showing up to 5 results
|